Location: Stull Observatory
(42.2506°N, 77.7903°W)
Time: 01:17:28
(UTC-04:00)

Daily predictions for brighter satellites

Satellite Brightness Start Highest point End
(mag) Time Altitude Azimuth Time Altitude Azimuth Time Altitude Azimuth
ATLAS 2AS CENTAUR R/B 4.2 02:33:48 37° NE 02:33:48 37° NE 02:38:20 10° NE
Cosmos 2333 Rocket 4.4 03:05:27 10° N 03:09:50 22° NE 03:14:08 10° E
Cosmos 2237 Rocket 4.1 03:30:20 10° N 03:35:03 26° NE 03:39:45 10° ESE
Lacrosse 5 4.2 03:38:47 18° E 03:38:47 18° E 03:40:45 10° ENE
ATLAS 5 CENTAUR R/B 3.8 03:37:21 20° N 03:40:41 34° NE 03:46:26 10° ESE
Cosmos 2219 4.4 03:52:28 36° NNE 03:52:28 36° NNE 03:55:44 10° NNE
ARIANE 5 R/B 4.2 03:47:31 10° NNE 03:49:50 27° NNE 03:49:50 27° NNE
NOSS 3-4 (A) 4.2 04:00:48 46° ESE 04:00:57 46° ESE 04:07:08 10° NE
NOSS 3-4 (C) 4.2 04:00:53 45° ESE 04:01:04 46° ESE 04:07:13 10° NE
Gbstr 26 Del rocket 4.3 04:03:06 74° SE 04:03:06 74° SE 04:10:21 10° SE
Cosmos 2344 3.5 04:06:57 75° SSW 04:07:44 85° ESE 04:16:29 10° NE
Cosmos 2227 Rocket 3.2 04:07:44 39° ESE 04:08:10 40° ESE 04:13:25 10° NE
CZ-2D R/B 3.1 04:04:34 10° NNE 04:07:49 39° N 04:07:49 39° N
Cosmos 2219 Rocket 4.2 04:08:12 10° NNW 04:20:32 - SSE 04:09:24 17° NNW
SL-16 R/B 3.8 04:20:48 27° NNW 04:20:48 27° NNW 04:23:35 10° NNW
Cosmos 2297 Rocket 3.5 04:15:57 29° SE 04:17:36 34° ESE 04:22:38 10° NE
ATLAS 2AS CENTAUR R/B 4.0 04:21:15 31° NW 04:22:07 32° NW 04:29:16 10° NNE
NOSS 0 Rocket 3.8 04:23:06 10° NNW 04:29:21 88° ENE 04:35:36 10° SSE
MOS 1-B 4.2 04:26:19 10° NNE 04:32:08 85° WNW 04:32:12 85° W
Cosmos 1934 Rocket 4.1 04:26:59 10° NNW 04:32:19 60° NW 04:32:19 60° NW
Resurs 1-4 Rocket 3.0 04:30:36 10° N 04:34:07 37° NNW 04:34:07 37° NNW
Cosmos 1605 Rocket 3.8 04:30:02 10° N 04:36:12 89° E 04:39:10 33° S
BREEZE-M DEB (TANK) 3.7 04:41:55 52° SE 04:41:55 52° SE 04:44:36 10° ENE
Cosmos 2082 3.7 04:46:49 55° S 04:48:05 79° ESE 04:53:43 10° NNE
NOSS 3-2 (A) 3.9 04:42:14 10° NW 04:49:44 72° WSW 04:57:46 10° SSE
Cosmos 1025 Rocket 3.3 04:51:03 55° SE 04:51:44 65° E 04:56:01 10° NNE
CZ-4B R/B 3.6 04:47:35 10° NNE 04:51:56 59° E 04:53:24 39° SSE
Cosmos 923 Rocket 3.9 04:46:58 10° NNW 04:54:42 33° S 04:57:37 10° S
Lacrosse 5 rocket 3.2 04:53:31 23° NNW 04:53:31 23° NNW 04:56:53 10° NNE
Cosmos 2333 Rocket 2.1 04:48:56 10° NNW 04:54:35 64° WSW 05:00:11 10° S
BREEZE-M DEB (TANK) 3.7 04:58:54 24° NNE 04:59:08 24° NNE 05:01:27 10° E
Okean O Rocket 1.4 04:55:46 10° N 05:00:11 82° WNW 05:00:24 79° WSW
DELTA 2 R/B (1) 4.3 05:01:53 34° S 05:03:13 40° SSE 05:08:23 10° E
Cosmos 1606 Rocket 3.6 05:01:15 10° N 05:05:39 75° E 05:09:58 10° SSE
Okean 2 4.2 05:03:14 16° SSE 05:06:21 51° E 05:10:23 10° NNE
Meteor 1-19 Rocket 4.1 05:04:57 29° SSW 05:07:57 82° W 05:13:35 10° N
Cosmos 2061 Rocket 4.4 05:04:25 10° N 05:10:42 66° E 05:17:02 10° SSE
USA 215 4.3 05:05:10 10° S 05:08:44 25° SSW 05:08:44 25° SSW
Delta 2 Rocket 4.4 05:13:34 29° SSE 05:13:34 29° SSE 05:16:16 10° ESE
Cosmos 2100 Rocket 4.1 05:07:56 10° N 05:14:11 78° E 05:20:28 10° SSE
Cosmos 1802 Rocket 4.4 05:08:09 10° N 05:14:16 62° E 05:20:20 10° SSE
Cosmos 1898 Rocket 4.3 05:09:45 10° S 05:14:53 52° ESE 05:20:02 10° NNE
Cosmos 1726 Rocket 3.5 05:12:17 10° N 05:16:43 84° E 05:21:04 10° S
CZ-4B R/B 3.1 05:11:32 10° NNE 05:16:57 79° WNW 05:20:48 20° SSW
CZ-2C R/B 3.8 05:17:20 36° SSW 05:18:48 52° W 05:23:20 10° NNW
Cosmos 2237 Rocket 2.3 05:13:57 10° NW 05:19:21 49° WSW 05:24:44 10° S
Lacrosse 5 1.9 05:18:00 45° W 05:19:23 63° NW 05:24:26 10° NE
Cosmos 1666 2.6 05:15:34 10° N 05:19:27 85° E 05:23:17 10° S
Meteor 2-4 Rocket 3.7 05:17:27 10° S 05:23:17 84° W 05:29:15 10° N
Tiangong 1 1.0 05:23:36 77° ESE 05:23:36 77° ESE 05:26:28 10° E
ATLAS 5 CENTAUR R/B 2.5 05:19:47 10° NW 05:25:41 54° WSW 05:31:58 10° SSE
CENTAUR R/B 3.6 05:18:19 10° NNW 05:25:58 60° NE 05:34:10 10° SE
Cosmos 292 Rocket 3.7 05:22:08 10° NNW 05:27:02 81° WSW 05:31:53 10° SSE
Meteor 1-23 Rocket 4.1 05:21:45 10° S 05:27:22 84° W 05:33:06 10° N
ADEOS Rocket 3.2 05:20:13 10° NNE 05:27:30 88° WNW 05:33:58 10° SSW
Cosmos 220 Rocket 4.2 05:27:01 43° W 05:27:33 46° WNW 05:31:38 10° N
NOSS 3-2 (C) 4.1 05:20:18 10° NW 05:27:36 53° WSW 05:35:24 10° S
Cosmos 1892 Rocket 3.5 05:24:41 15° S 05:28:23 82° W 05:32:53 10° N
Cosmos 1937 Rocket 4.4 05:23:58 10° S 05:28:58 50° ESE 05:34:04 10° NNE
ARIANE 5 R/B 4.5 05:28:43 10° NNW 05:30:10 13° NW 05:30:10 13° NW
Cosmos 1980 4.2 05:27:56 10° NW 05:33:01 35° WSW 05:38:06 10° SSW
ADEOS II 2.2 05:27:52 10° NNE 05:33:09 76° ESE 05:38:25 10° S
PSLV R/B 3.5 05:30:43 10° NNE 05:35:05 87° W 05:39:22 10° SSW
SL-16 R/B 2.1 05:33:24 10° NNW 05:39:06 78° WSW 05:44:45 10° SSE
ASTRO F (AKARI) 4.2 05:38:51 10° S 05:41:56 55° W 05:45:08 10° NNW
Meteor 2-9 Rocket 4.2 05:36:39 10° NNW 05:42:13 64° W 05:47:55 10° S
OE (NEXTSAT) 4.3 05:41:19 32° WNW 05:42:53 86° SSW 05:46:32 10° ESE
Meteor PRIRODA 3.6 05:42:31 10° NNE 05:46:17 85° ESE 05:49:59 10° SSW
Cosmos 1000 Rocket 4.5 05:40:30 10° SSW 05:46:49 74° W 05:53:10 10° N
RESURS DK-1 3.1 05:46:01 28° W 05:47:18 35° WNW 05:51:08 10° N
Cosmos 2228 2.9 05:44:03 10° N 05:48:29 82° W 05:52:50 10° S
CZ-2D R/B 4.0 05:47:10 10° NW 05:49:07 12° WNW 05:49:09 12° WNW
Cosmos 2016 Rocket 4.0 05:43:29 10° N 05:49:52 85° W 05:56:09 10° S
Cosmos 1680 Rocket 4.3 05:45:36 10° NW 05:50:00 27° W 05:54:23 10° SSW
NOSS 3-4 (A) 4.2 05:48:17 21° W 05:51:58 38° NW 05:58:06 10° NNE
NOSS 3-4 (C) 4.2 05:48:21 21° W 05:52:04 39° NW 05:58:13 10° NNE
Cosmos 2227 Rocket 3.0 05:49:37 22° W 05:52:17 32° NW 05:57:20 10° N
Cosmos 1346 Rocket 3.3 05:51:14 21° SW 05:53:16 36° WNW 05:56:59 10° N
Cosmos 2173 Rocket 4.0 05:49:35 10° NNW 05:55:30 55° W 06:01:28 10° SSW
USA 129 1.6 05:54:24 10° SSE 05:56:20 70° E 05:58:08 10° N
Cosmos 2297 Rocket 2.8 05:57:49 17° WSW 06:01:34 36° WNW 06:06:47 10° N
OTV 4 2.7 06:01:46 10° SSW 06:01:46 10° SSW 06:02:12 10° SSW
Okean-O 2.7 05:59:06 10° N 06:03:26 55° WNW 06:07:46 10° SSW
Cosmos 1459 Rocket 4.2 05:57:44 10° NNW 06:03:48 47° W 06:09:47 10° SSW
Cosmos 2058 Rocket 3.6 06:03:30 10° NNW 06:07:28 35° W 06:11:26 10° SSW
Cosmos 2123 Rocket 4.0 06:01:27 10° S 06:07:36 90° WSW 06:13:49 10° N
Cosmos 2298 Rocket 4.3 06:06:21 10° SW 06:11:27 47° WNW 06:16:36 10° N
NOSS 8 (A) 4.3 06:09:34 10° SW 06:12:52 80° NW 06:16:24 10° NNE
CZ-4B R/B 3.7 06:10:15 10° N 06:14:13 74° WNW 06:17:58 10° SSW
Aureole 2 Rocket 2.9 06:15:28 10° NW 06:18:39 34° WSW 06:21:33 10° S
Thor Agena Rocket 4.5 06:15:15 10° SSW 06:19:41 27° W 06:24:09 10° NW
EXPRESS MD2 3.7 06:16:27 10° WNW 06:19:52 75° SSW 06:26:48 10° SE
COSMO-SKYMED 1 2.8 06:16:48 10° SSE 06:21:07 75° ENE 06:25:28 10° N
Cosmos 2150 Rocket 4.5 06:21:12 10° SW 06:26:01 39° WNW 06:30:52 10° N
Cosmos 1603 3.7 06:20:39 10° NNW 06:26:25 84° WSW 06:32:06 10° SSE
Meteor 1-31 Rocket 3.2 06:28:05 10° N 06:31:47 42° WNW 06:35:29 10° SW
Cosmos 990 Rocket 4.1 06:27:19 10° SSW 06:32:30 60° WNW 06:37:42 10° NNE
SeaSat 1 3.3 06:28:13 10° SE 06:33:01 55° ENE 06:37:51 10° NNW
Ariane Rocket 3.2 06:28:10 10° NNE 06:33:18 79° ESE 06:38:25 10° S
Lacrosse 5 rocket 3.9 06:32:10 10° NNW 06:33:56 12° N 06:35:42 10° NNE
Intercosmos 25 Rocket 3.5 06:31:19 10° N 06:34:49 82° W 06:39:54 10° S
Cosmos 2098 Rocket 3.9 06:34:38 10° NW 06:38:00 28° W 06:42:04 10° SSW
Cosmos 2263 Rocket 4.1 06:34:22 10° SSE 06:39:22 35° ESE 06:44:21 10° NE
Cosmos 1626 Rocket 4.1 06:36:42 10° SW 06:40:46 37° WNW 06:44:50 10° N
